Location: Ústí nad Labem
(50.6611°N, 14.0531°E)
Time: 01:09:32
(UTC+02:00)

A-11 Canister half - Pass Details

Date: 22 April 2024
Orbit: 1525 x 1683 km, 47.3° (Epoch: 19 May)

Event Time Altitude Azimuth Distance (km) Brightness Sun altitude
Rises 03:50:48 0° 167° (SSE) 4,833 11.3 -17.1°
Reaches altitude 10° 03:57:09 10° 137° (SE) 3,891 11.1 -16.4°
Maximum altitude 03:59:50 11° 121° (ESE) 3,796 11.2 -16.1°
Drops below altitude 10° 04:02:33 10° 105° (ESE) 3,921 11.5 -15.8°
Sets 04:08:59 0° 76° (ENE) 4,935 12.8 -15.1°
